Regional Weather Roundup
Issued by NWS Northern Indiana

Home | Current Version | Previous Version | Text Only | Print | Product List | Glossary Off
Versions: 1 2 3 4 5 6 7 8 9 10 11 12 13 14 15 16 17 18 19 20 21 22 23 24 25 26 27 28 29 30 31 32 33 34 35 36 37 38 39 40 41 42 43 44 45 46 47 48 49 50

891
ASUS43 KIWX 300510
RWRIWX

KIWX WEATHER ROUNDUP
NATIONAL WEATHER SERVICE NORTHERN INDIANA
100 AM EDT SAT APR 30 2016

NOTE: "FAIR" INDICATES FEW OR NO CLOUDS BELOW 12,000 FEET WITH NO
SIGNIFICANT WEATHER AND/OR OBSTRUCTIONS TO VISIBILITY.

* THESE STATIONS ARE NOT UNDER NWS QUALITY CONTROL. THEY ALSO MAY NOT
  REPORT WEATHER SUCH AS PRECIPITATION OR FOG.

INZ001>027-300600-
NORTHERN INDIANA

CITY           SKY/WX    TMP DP  RH WIND       PRES   REMARKS
GARY*          CLOUDY    45  45 100 NE5       30.11F
VALPARAISO     CLOUDY    42  40  92 CALM      30.10F
MICHIGAN CITY* CLOUDY    43  43 100 CALM      30.10F
LAPORTE*       CLOUDY    45  45 100 NE5       30.10F
KNOX*          CLOUDY    41  37  87 CALM      30.09F
SOUTH BEND     CLEAR     44  42  93 NE5       30.10F
GOSHEN         PTCLDY    48  43  82 E10       30.10F
MONTICELLO*    CLOUDY    47  44  87 NE7       30.07F
LOGANSPORT*    PTCLDY    48  45  87 E6        30.08F
ROCHESTER*     CLOUDY    46  45  93 E6        30.09F
WARSAW*        CLOUDY    46  43  87 E6        30.10F
ANGOLA*        CLOUDY    46  34  61 E8        30.13F
FORT WAYNE     MOCLDY    47  42  83 E10       30.12F
HUNTINGTON*    CLOUDY   N/A N/A N/A E5        30.11S
PERU/GRISSOM   CLOUDY    49  47  90 E8        30.06F
MARION*        PTCLDY    50  43  79 E7        30.10S

$$
INZ028>050-300600-
CENTRAL INDIANA

CITY           SKY/WX    TMP DP  RH WIND       PRES   REMARKS
LAFAYETTE      PTCLDY    49  45  86 NE9       30.07S
KOKOMO*        MOCLDY    48  43  81 E8        30.08F
MUNCIE*        MOCLDY    51  46  83 E6        30.10S
INDIANAPOLIS   CLOUDY    55  47  74 E13       30.05S

$$
MIZ043>046-050>051-056>058-064>065-071>073-077>080-300600-
SOUTHWEST LOWER MICHIGAN

CITY           SKY/WX    TMP DP  RH WIND       PRES   REMARKS
BATTLE CREEK   CLOUDY    48  39  71 E7        30.14F
BENTON HARBOR  CLOUDY    48  42  80 E6        30.11F
COLDWATER*     CLOUDY    48  40  75 SE9       30.13F
HILLSDALE*     CLOUDY    46  39  75 E5        30.13F
HOLLAND        CLEAR     42  38  85 NE3       30.14F
GRAND RAPIDS   CLEAR     40  37  89 NE5       30.15S
KALAMAZOO      CLOUDY    49  40  71 E5        30.13F
STURGIS*       CLOUDY    48  41  77 E7        30.12S
THREE RIVERS*  CLOUDY    48  41  76 E6        30.12F

$$
OHZ001>008-015>018-024>025-300600-
NORTHWEST OHIO

CITY           SKY/WX    TMP DP  RH WIND       PRES   REMARKS
WAUSEON*         N/A     46  32  57 E7        30.14F
DEFIANCE       CLOUDY    47  40  76 E9        30.15F
FINDLAY        CLEAR     42  36  79 SE5       30.14F
TOLEDO EXPRESS MOCLDY    44  37  76 E5        30.15S
TOLEDO METCALF CLEAR     43  38  82 E3        30.16S
LIMA           PTCLDY    45  43  93 E9        30.12F

$$
AND FOR LAKE MICHIGAN COASTAL AND OPEN LAKE BUOY OBSERVATIONS

STATION/POSITION TEMP    WIND        PRES    VSBY  WAVE
                 AIR SEA DIR/SP/G                  HT/PER
                 (F)     (DEG/KT/KT) (MB)    (MI)  (FT/S)
CALUMET HARBOR    43      40/  7/  9 1019.5
MICHIGAN CITY     45      10/  7/  7   N/A
BURNS HARBOR      44      60/  9/ 10 1020.3F
SAINT JOSEPH      48      CALM  /  3 1020.7F
SOUTH LAKE BUOY   41 40   60/  8/ 10 1020.6F         1/ 3
4 MI NW BRIDGMAN  48 47                N/A           2/ 4

$$
&&




USA.gov is the U.S. government's official web portal to all federal, state and local government web resources and services.